Back to catalog

AMSAT ECHO

AliveAmateur RadioSSO
NORAD 28375·PAYLOAD·🇺🇸 United States

Launched Jun 29, 2004 from Baikonur Cosmodrome

Loading…

Next Passes (next 24 hours)

TLE

FreshSource: Space-Track

Epoch: Sep 14, 2026, 02:54 UTC

1 28375U 04025K   26257.12120309  .00000109  00000-0  44503-4 0  9996
2 28375  98.6726 222.7342 0079382 210.5593 149.0960 14.43912705168416

Track AMSAT ECHO in real time with AllMySat

Download on the App Store